Weather History for KMDS - July, 2013

Change the Weather History Date:

Wednesday, July 31, 2013

  Actual Average Record
Temperature  
Mean Temperature 66 °F -  
Max Temperature 77 °F 82 °F 89 °F (2012)
Min Temperature 55 °F 58 °F 50 °F (2014)
Cooling Degree Days 1    
Growing Degree Days 16 (Base 50)    
Moisture  
Dew Point 59 °F    
Average Humidity 82    
Maximum Humidity 100    
Minimum Humidity 50    
Precipitation  
Precipitation 0.00 in - - ()
Sea Level Pressure  
Sea Level Pressure 30.13 in    
Wind  
Wind Speed 3 mph (NNW)    
Max Wind Speed 12 mph    
Max Gust Speed 18 mph    
Visibility 10 miles    
Events Rain    
Averages and records for this station are not official NWS values.
T = Trace of Precipitation, MM = Missing Value Source: NWS Daily Summary

Daily Weather History Graph

Daily Weather History Graph

Search for Another Location

Airport or City:

Trip Planner

Search our weather history database for the weather conditions in past years. The results will help you decide how hot, cold, wet, or windy it might be!

Date:

Astronomy

Jul. 31, 2013 Rise Set
Actual Time 6:15 AM CDT 8:53 PM CDT
Civil Twilight 5:42 AM CDT 9:25 PM CDT
Nautical Twilight 5:01 AM CDT 10:07 PM CDT
Astronomical Twilight 4:13 AM CDT 10:54 PM CDT
Moon 1:12 AM CDT (7/31) 4:11 PM CDT (7/31)
Length of Visible Light 15h 43m
Length of Day
14h 37m
Waning Crescent, 31% of the Moon is Illuminated
Jul 31
Waning Crescent
Aug 6
New
Aug 14
First Quarter
Aug 20
Full
Aug 28
Last Quarter

Hourly Weather History & Observations

Time (CDT) Temp. Dew Point Humidity Pressure Visibility Wind Dir Wind Speed Gust Speed Precip Events Conditions
12:10 AM 57.2 °F 57.2 °F 100% 30.13 in 10.0 mi Calm Calm - N/A   Clear
12:30 AM 57.2 °F 57.2 °F 100% 30.12 in 10.0 mi Calm Calm - N/A   Clear
12:50 AM 57.2 °F 57.2 °F 100% 30.13 in 10.0 mi North 3.5 mph - N/A   Clear
1:30 AM 57.2 °F 57.2 °F 100% 30.14 in 10.0 mi Calm Calm - N/A   Clear
1:50 AM 55.4 °F 55.4 °F 100% 30.14 in 10.0 mi West 3.5 mph - N/A   Clear
2:10 AM 55.4 °F 55.4 °F 100% 30.14 in 10.0 mi Calm Calm - N/A   Clear
2:30 AM 55.4 °F 55.4 °F 100% 30.13 in 10.0 mi Calm Calm - N/A   Clear
2:50 AM 55.4 °F 55.4 °F 100% 30.13 in 10.0 mi NNW 3.5 mph - N/A   Clear
3:10 AM 55.4 °F 55.4 °F 100% 30.13 in 10.0 mi NNW 3.5 mph - N/A   Clear
3:30 AM 55.4 °F 55.4 °F 100% 30.13 in 10.0 mi North 4.6 mph - N/A   Clear
3:50 AM 57.2 °F 57.2 °F 100% 30.13 in 10.0 mi Calm Calm - N/A   Clear
4:10 AM 55.4 °F 55.4 °F 100% 30.13 in 7.0 mi NNW 4.6 mph - N/A   Clear
4:30 AM 57.2 °F 57.2 °F 100% 30.13 in 10.0 mi NNW 4.6 mph - N/A   Clear
4:50 AM 57.2 °F 57.2 °F 100% 30.13 in 7.0 mi NW 3.5 mph - N/A   Clear
5:10 AM 55.4 °F 55.4 °F 100% 30.13 in 0.8 mi NNW 4.6 mph - N/A   Mist
5:30 AM 55.4 °F 55.4 °F 100% 30.13 in 1.0 mi Calm Calm - N/A   Clear
5:50 AM 55.4 °F 55.4 °F 100% 30.14 in 4.0 mi Calm Calm - N/A   Clear
6:10 AM 55.4 °F 55.4 °F 100% 30.14 in 10.0 mi Calm Calm - N/A   Clear
6:30 AM 57.2 °F 57.2 °F 100% 30.15 in 10.0 mi Calm Calm - N/A   Mostly Cloudy
6:50 AM 57.2 °F 57.2 °F 100% 30.14 in 10.0 mi Calm Calm - N/A   Mostly Cloudy
7:10 AM 57.2 °F 57.2 °F 100% 30.15 in 10.0 mi SW 3.5 mph - N/A   Scattered Clouds
7:30 AM 59.0 °F 59.0 °F 100% 30.14 in 10.0 mi North 3.5 mph - N/A   Partly Cloudy
7:50 AM 60.8 °F 60.8 °F 100% 30.17 in 10.0 mi NNW 6.9 mph - N/A   Mostly Cloudy
8:10 AM 62.6 °F 62.6 °F 100% 30.17 in 10.0 mi North 6.9 mph - N/A   Mostly Cloudy
8:30 AM 64.4 °F 64.4 °F 100% 30.17 in 10.0 mi North 9.2 mph - N/A   Partly Cloudy
8:50 AM 64.4 °F 64.4 °F 100% 30.17 in 10.0 mi North 5.8 mph - N/A   Clear
9:10 AM 64.4 °F 64.4 °F 100% 30.17 in 10.0 mi NNE 6.9 mph - N/A   Scattered Clouds
9:30 AM 64.4 °F 64.4 °F 100% 30.17 in 10.0 mi NNE 6.9 mph - N/A Rain Light Rain
9:50 AM 64.4 °F 64.4 °F 100% 30.17 in 10.0 mi NNE 9.2 mph - N/A   Scattered Clouds
10:10 AM 64.4 °F 64.4 °F 100% 30.17 in 10.0 mi NNE 6.9 mph - N/A   Scattered Clouds
10:30 AM 66.2 °F 64.4 °F 94% 30.16 in 10.0 mi East 4.6 mph - N/A   Partly Cloudy
10:50 AM 68.0 °F 64.4 °F 88% 30.17 in 10.0 mi ENE 5.8 mph - N/A   Scattered Clouds
11:10 AM 68.0 °F 64.4 °F 88% 30.17 in 10.0 mi Calm Calm - N/A   Mostly Cloudy
11:30 AM 69.8 °F 60.8 °F 73% 30.18 in 10.0 mi NW 3.5 mph - N/A   Scattered Clouds
11:50 AM 71.6 °F 60.8 °F 69% 30.17 in 10.0 mi Calm Calm - N/A   Scattered Clouds
12:10 PM 71.6 °F 59.0 °F 64% 30.17 in 10.0 mi Calm Calm - N/A   Clear
12:30 PM 71.6 °F 59.0 °F 64% 30.17 in 10.0 mi West 3.5 mph - N/A   Clear
12:50 PM 73.4 °F 59.0 °F 61% 30.16 in 10.0 mi Calm Calm - N/A   Clear
1:10 PM 73.4 °F 59.0 °F 61% 30.16 in 10.0 mi NW 6.9 mph - N/A   Clear
1:30 PM 75.2 °F 59.0 °F 57% 30.16 in 10.0 mi North 6.9 mph - N/A   Partly Cloudy
1:50 PM 75.2 °F 57.2 °F 53% 30.16 in 10.0 mi NW 9.2 mph - N/A   Partly Cloudy
2:10 PM 75.2 °F 57.2 °F 53% 30.15 in 10.0 mi NNW 6.9 mph - N/A   Partly Cloudy
2:30 PM 75.2 °F 59.0 °F 57% 30.15 in 10.0 mi NNW 6.9 mph - N/A   Clear
2:50 PM 77.0 °F 57.2 °F 50% 30.15 in 10.0 mi WNW 8.1 mph - N/A   Partly Cloudy
3:10 PM 75.2 °F 57.2 °F 53% 30.14 in 10.0 mi NW 9.2 mph - N/A   Partly Cloudy
3:30 PM 77.0 °F 59.0 °F 54% 30.14 in 10.0 mi NW 11.5 mph - N/A   Partly Cloudy
3:50 PM 77.0 °F 59.0 °F 54% 30.13 in 10.0 mi NW 9.2 mph - N/A   Scattered Clouds
4:10 PM 77.0 °F 57.2 °F 50% 30.13 in 10.0 mi NW 11.5 mph 18.4 mph N/A   Scattered Clouds
4:30 PM 75.2 °F 57.2 °F 53% 30.12 in 10.0 mi NW 10.4 mph 16.1 mph N/A   Clear
4:50 PM 75.2 °F 55.4 °F 50% 30.11 in 10.0 mi NW 9.2 mph - N/A   Clear
5:10 PM 77.0 °F 57.2 °F 50% 30.10 in 10.0 mi West 8.1 mph - N/A   Clear
5:30 PM 77.0 °F 57.2 °F 50% 30.09 in 10.0 mi WNW 10.4 mph - N/A   Clear
5:50 PM 77.0 °F 57.2 °F 50% 30.09 in 10.0 mi NW 5.8 mph - N/A   Clear
6:10 PM 75.2 °F 55.4 °F 50% 30.09 in 10.0 mi NNW 10.4 mph - N/A   Clear
6:30 PM 75.2 °F 55.4 °F 50% 30.09 in 10.0 mi NW 5.8 mph - N/A   Clear
6:50 PM 75.2 °F 57.2 °F 53% 30.09 in 10.0 mi NW 6.9 mph - N/A   Partly Cloudy
7:10 PM 75.2 °F 59.0 °F 57% 30.09 in 10.0 mi North 4.6 mph - N/A   Clear
7:30 PM 73.4 °F 59.0 °F 61% 30.09 in 10.0 mi NNW 3.5 mph - N/A   Clear
7:50 PM 73.4 °F 59.0 °F 61% 30.09 in 10.0 mi Calm Calm - N/A   Clear
8:10 PM 73.4 °F 57.2 °F 57% 30.08 in 10.0 mi Calm Calm - N/A   Clear
8:30 PM 71.6 °F 57.2 °F 60% 30.09 in 10.0 mi WNW 3.5 mph - N/A   Clear
8:50 PM 64.4 °F 64.4 °F 100% 30.09 in 10.0 mi NNW 4.6 mph - N/A   Clear
9:10 PM 64.4 °F 64.4 °F 100% 30.10 in 10.0 mi North 4.6 mph - N/A   Mostly Cloudy
9:30 PM 64.4 °F 64.4 °F 100% 30.10 in 10.0 mi NNE 3.5 mph - N/A   Scattered Clouds
9:50 PM 62.6 °F 62.6 °F 100% 30.10 in 10.0 mi NNE 3.5 mph - N/A   Clear
10:10 PM 62.6 °F 62.6 °F 100% 30.11 in 10.0 mi Calm Calm - N/A   Partly Cloudy
10:30 PM 62.6 °F 62.6 °F 100% 30.11 in 10.0 mi Calm Calm - N/A   Mostly Cloudy
10:50 PM 60.8 °F 60.8 °F 100% 30.12 in 10.0 mi Calm Calm - N/A   Partly Cloudy
11:10 PM 64.4 °F 62.6 °F 94% 30.12 in 10.0 mi Calm Calm - N/A   Clear
11:30 PM 59.0 °F 59.0 °F 100% 30.12 in 10.0 mi Calm Calm - N/A   Mostly Cloudy
11:50 PM 60.8 °F 60.8 °F 100% 30.12 in 10.0 mi Calm Calm - N/A   Mostly Cloudy